Orbital Elements at Epoch 2459000.5 (2020-May-31.0) TDB
Reference: JPL 22 (heliocentric ecliptic J2000)
Element | Value | Uncertainty (1-sigma) | Units |
e | .136061812601446 | 4.0073e-08 | |
a | 2.390220244300787 | 9.3906e-09 | au |
q | 2.065002545344551 | 9.7717e-08 | au |
i | 1.36496320499423 | 3.581e-06 | deg |
node | 246.6610581931638 | 0.00019597 | deg |
peri | 142.0109859291945 | 0.0001966 | deg |
M | 240.359096235862 | 1.5735e-05 | deg |
tp | 2459449.072341277833 (2021-Aug-22.57234128) | 5.9801e-05 | TDB |
period | 1349.756126703758 3.70 | 7.9543e-06 2.178e-08 | d yr |
n | .2667148478734129 | 1.5718e-09 | deg/d |
Q | 2.715437943257023 | 1.0668e-08 | au |
|
| | Orbit Determination Parameters
Additional Information
|